Kingman, AZ

4:27 AM MST on December 18, 2017 (GMT -0700)
Kingman

Weather History for KIGM - April, 2014

Change the Weather History Date:

Wednesday, April 23, 2014

  Actual Average Record
Temperature  
Mean Temperature 57 °F 61 °F  
Max Temperature 72 °F 76 °F 93 °F (1949)
Min Temperature 42 °F 46 °F 28 °F (1904)
Degree Days  
Heating Degree Days 8 5  
Month to date heating degree days 116 184  
Since 1 July heating degree days 2744 3015  
Cooling Degree Days 0 1  
Month to date cooling degree days 33 16  
Year to date cooling degree days 33 19  
Growing Degree Days 8 (Base 50)    
Moisture  
Dew Point 5 °F    
Average Humidity 12    
Maximum Humidity 17    
Minimum Humidity 7    
Precipitation  
Precipitation 0.00 in 0.01 in 0.65 in (1942)
Month to date precipitation 0.02 0.35  
Year to date precipitation 0.57 3.27  
Sea Level Pressure  
Sea Level Pressure 29.78 in    
Wind  
Wind Speed 11 mph (NNE)    
Max Wind Speed 24 mph    
Max Gust Speed 30 mph    
Visibility 10 miles    
Events      
T = Trace of Precipitation, MM = Missing Value Source: NWS Daily Summary

Daily Weather History Graph

Daily Weather History Graph

Search for Another Location

Airport or City:

Trip Planner

Search our weather history database for the weather conditions in past years. The results will help you decide how hot, cold, wet, or windy it might be!

Date:

Astronomy

Apr. 23, 2014 Rise Set
Actual Time 5:53 AM MST 7:15 PM MST
Civil Twilight 5:26 AM MST 7:41 PM MST
Nautical Twilight 4:55 AM MST 8:13 PM MST
Astronomical Twilight 4:21 AM MST 8:47 PM MST
Moon 2:14 AM MST (4/23) 1:40 PM MST (4/23)
Length of Visible Light 14h 15m
Length of Day
13h 21m
Waning Crescent, 34% of the Moon is Illuminated
Apr 23
Waning Crescent
Apr 28
New
May 6
First Quarter
May 14
Full
May 21
Last Quarter

Hourly Weather History & Observations

Time (MST) Temp. Windchill Dew Point Humidity Pressure Visibility Wind Dir Wind Speed Gust Speed Precip Events Conditions
12:51 AM 45.0 °F - 1.0 °F 16% 29.66 in 10.0 mi Calm Calm - N/A   Clear
1:51 AM 46.0 °F 43.1 °F 1.9 °F 16% 29.65 in 10.0 mi SSW 5.8 mph - N/A   Clear
2:51 AM 45.0 °F 42.6 °F 1.9 °F 17% 29.66 in 10.0 mi SSE 4.6 mph - N/A   Clear
3:51 AM 46.9 °F - 3.0 °F 16% 29.67 in 10.0 mi SSE 6.9 mph - N/A   Clear
4:51 AM 48.2 °F - 3.2 °F 16% 29.83 in 10.0 mi SSE 6.9 mph - N/A   Clear
5:51 AM 46.9 °F - 3.9 °F 17% 29.70 in 10.0 mi Calm Calm - N/A   Clear
6:51 AM 51.1 °F - 8.1 °F 18% 29.72 in 10.0 mi ENE 9.2 mph - N/A   Clear
7:51 AM 57.0 °F - 7.0 °F 14% 29.75 in 10.0 mi NNE 15.0 mph - N/A   Clear
8:51 AM 62.1 °F - 8.1 °F 12% 29.77 in 10.0 mi NNW 19.6 mph - N/A   Clear
9:51 AM 64.0 °F - 6.1 °F 10% 29.78 in 10.0 mi North 20.7 mph 26.5 mph N/A   Clear
10:51 AM 66.0 °F - 3.0 °F 8% 29.81 in 10.0 mi North 20.7 mph 29.9 mph N/A   Clear
11:51 AM 66.9 °F - 1.0 °F 7% 29.81 in 10.0 mi NNW 19.6 mph 27.6 mph N/A   Clear
12:51 PM 69.8 °F - 6.8 °F 9% 29.95 in 10.0 mi North 17.3 mph 28.8 mph N/A   Clear
1:51 PM 71.1 °F - 6.1 °F 8% 29.81 in 10.0 mi North 17.3 mph - N/A   Clear
2:51 PM 70.0 °F - 6.1 °F 8% 29.80 in 10.0 mi North 15.0 mph 26.5 mph N/A   Clear
3:51 PM 71.1 °F - 6.1 °F 8% 29.78 in 10.0 mi NNE 9.2 mph 17.3 mph N/A   Clear
4:51 PM 71.1 °F - 7.0 °F 8% 29.77 in 10.0 mi North 12.7 mph 20.7 mph N/A   Clear
5:51 PM 70.0 °F - 7.0 °F 9% 29.78 in 10.0 mi North 11.5 mph - N/A   Clear
6:51 PM 66.0 °F - 7.0 °F 10% 29.78 in 10.0 mi North 13.8 mph - N/A   Clear
7:51 PM 62.1 °F - 6.1 °F 11% 29.80 in 10.0 mi North 10.4 mph - N/A   Clear
8:51 PM 55.9 °F - 6.1 °F 14% 29.83 in 10.0 mi ENE 6.9 mph - N/A   Clear
9:51 PM 52.0 °F - 6.1 °F 16% 29.85 in 10.0 mi SE 8.1 mph - N/A   Clear
10:51 PM 50.0 °F - 6.1 °F 17% 29.85 in 10.0 mi ESE 6.9 mph - N/A   Clear
11:51 PM 50.0 °F - 6.1 °F 17% 29.86 in 10.0 mi SE 8.1 mph - N/A   Clear